(48) Doris
ephemeris date magn radius delta ra dec elong phase
Today24 Aug 202613.03.316 AU3.048 AU16h25m-14°30'96.3°17.6°
Opposition16 Aug 202711.53.178 AU2.170 AU21h34m-07°52'173.8°2.0°
(48) Doris - 2026-08-24
astro.vanbuitenen.nl


 
-1 year
-1 month
-1 day
Now
+1 day
+1 month
+1 year

The interactive orbit chart above shows the body's path through the solar system and its position at the given date. Green and blue lines are shown perpendicular to the ecliptic plane: Green if the path is above the ecliptic plane, blue if it is below. (Left-click and drag to rotate the view; Right-click and drag to move the view; Use scroll wheel to zoom in our out.)

The orbital elements of Doris are:

            e (Eccentricity)                : 0.0660520
            a (Semimajor axis)              : 3.1135589
            i (Inclination)                 : 6.55721
            Ω (Longitude of ascending node) : 183.42116
            ω (Argument of perihelion)      : 251.45061
            M (Mean anomaly)                : 177.53892
            Epoch                           : 2026 Jun 09

            L (Longitude of perihelion)     : 254.75806
            B (Latitude of perihelion)      : -6.21518
            P (Orbital period in years)     : 5.49            
        

The light curve chart below shows the estimated development of the minor planet's magnitude.


The all-sky chart below shows the path of the minor planet over the same period as the light curve. The current position is marked yellow.





The following chart shows the path of the minor planet in the next few days. The field of view is optimized for (~10x50) binoculars and finderscopes.




Ephemerides:
Date       Time       RA (2000)    DEC (2000)    delta   radius  elong  phase   PA    magn
2026-08-24 00:00 UT   16 25 01.4   -14 30 06     3.048    3.316   96.3   17.6   100   13.0 
2026-08-24 14:08 UT   16 25 19.8   -14 31 54     3.057    3.316   95.8   17.7   100   13.0 
2026-08-25 00:00 UT   16 25 32.8   -14 33 09     3.062    3.316   95.5   17.7   100   13.0 
2026-08-26 00:00 UT   16 26 05.2   -14 36 12     3.076    3.316   94.7   17.7   100   13.1 
2026-08-27 00:00 UT   16 26 38.7   -14 39 17     3.090    3.315   93.9   17.7   100   13.1 
2026-08-28 00:00 UT   16 27 13.1   -14 42 22     3.104    3.315   93.1   17.7    99   13.1 
2026-08-29 00:00 UT   16 27 48.4   -14 45 29     3.118    3.315   92.2   17.7    99   13.1 
2026-08-30 00:00 UT   16 28 24.8   -14 48 37     3.132    3.315   91.4   17.7    99   13.1 
2026-08-31 00:00 UT   16 29 02.0   -14 51 45     3.146    3.315   90.6   17.7    99   13.1 
2026-09-01 00:00 UT   16 29 40.2   -14 54 55     3.160    3.315   89.8   17.7    99   13.1 
2026-09-02 00:00 UT   16 30 19.4   -14 58 05     3.174    3.315   89.0   17.7    99   13.1 
2026-09-03 00:00 UT   16 30 59.4   -15 01 16     3.188    3.315   88.2   17.7    99   13.1 
2026-09-04 00:00 UT   16 31 40.4   -15 04 27     3.202    3.314   87.5   17.7    98   13.1 
2026-09-05 00:00 UT   16 32 22.2   -15 07 39     3.216    3.314   86.7   17.7    98   13.2 
2026-09-06 00:00 UT   16 33 05.0   -15 10 52     3.230    3.314   85.9   17.7    98   13.2 
2026-09-07 00:00 UT   16 33 48.6   -15 14 04     3.244    3.314   85.1   17.6    98   13.2 
2026-09-08 00:00 UT   16 34 33.1   -15 17 18     3.258    3.314   84.3   17.6    98   13.2 
2026-09-09 00:00 UT   16 35 18.5   -15 20 31     3.272    3.314   83.5   17.6    98   13.2 
2026-09-10 00:00 UT   16 36 04.7   -15 23 44     3.286    3.314   82.8   17.5    97   13.2 
2026-09-11 00:00 UT   16 36 51.8   -15 26 58     3.300    3.314   82.0   17.5    97   13.2 
2026-09-12 00:00 UT   16 37 39.7   -15 30 11     3.314    3.313   81.2   17.5    97   13.2 
2026-09-13 00:00 UT   16 38 28.5   -15 33 24     3.328    3.313   80.5   17.4    97   13.2 
2026-09-14 00:00 UT   16 39 18.0   -15 36 38     3.342    3.313   79.7   17.4    97   13.2 
2026-09-15 00:00 UT   16 40 08.4   -15 39 50     3.356    3.313   78.9   17.3    97   13.2 
2026-09-16 00:00 UT   16 40 59.5   -15 43 03     3.369    3.313   78.2   17.3    96   13.2 
2026-09-17 00:00 UT   16 41 51.5   -15 46 15     3.383    3.313   77.4   17.2    96   13.2 
2026-09-18 00:00 UT   16 42 44.2   -15 49 26     3.397    3.312   76.7   17.2    96   13.3 
2026-09-19 00:00 UT   16 43 37.7   -15 52 37     3.410    3.312   75.9   17.1    96   13.3 
2026-09-20 00:00 UT   16 44 31.9   -15 55 48     3.424    3.312   75.2   17.0    96   13.3 
2026-09-21 00:00 UT   16 45 26.8   -15 58 57     3.437    3.312   74.4   17.0    96   13.3 
2026-09-22 00:00 UT   16 46 22.5   -16 02 06     3.451    3.312   73.7   16.9    95   13.3 
2026-09-23 00:00 UT   16 47 18.9   -16 05 14     3.464    3.312   72.9   16.8    95   13.3 


    Terminology:
            
    delta:  distance between minor planet and earth in AU
    radius: distance between minor planet and sun in AU
    magn:   magnitude (brightness) estimate    
    ra:     right ascension in hours (24h = 360deg)
    dec:    declination in degrees
    elong:  elongation in degrees (angle sun-earth-minor planet)    
    phase:  phase angle in degrees (angle sun-minor planet-earth)        
    AU:     Astronomical Unit (mean distance between earth and sun: 149597870.7 km
    

Orbital elements provided by the MPC (Minor Planet Center).
Calculations by a modified version of AAPlus, a C# implementation of the AA+ project by PJ Naughter from the algorithms presented in the book "Astronomical Algorithms" by Jean Meeus.
NGC2000 dso catalog and star labels from VizieR as provided by the Strasbourg astronomical Data Center.
Tycho2 catalog from the ESO archive.